AVA247 SKCL-SKCL

Flight info

Callsign AVA247
Flight time 0h 6m
Altitude 24000
Route CLO1C ISOPA G675 IPI/N0382F230 G675 QIT/N0386F240 W9 TOGIX DCT DALUD STAR5
Aircraft A319/M-SDE3FGHIRWY/LB1

Departure

Time 2026-05-07 01:01
Airport Alfonso Bonilla Aragon International Airport (SKCL)

Arrival

Time 2026-05-07 01:08
Airport Alfonso Bonilla Aragon International Airport (SKCL)
Time Latitude Longitude Altitude Speed Heading
2026-05-07 00:39 2.00334 -77.05217 24117 ft 383 kts 202°
2026-05-07 00:39 1.97916 -77.06332 24120 ft 383 kts 202°
2026-05-07 00:40 1.95495 -77.07449 24121 ft 383 kts 203°
2026-05-07 00:40 1.93074 -77.08569 24123 ft 383 kts 203°
2026-05-07 00:40 1.90661 -77.09687 24123 ft 382 kts 203°
2026-05-07 00:40 1.88281 -77.10793 24125 ft 383 kts 203°
2026-05-07 00:41 1.85832 -77.11933 24125 ft 383 kts 204°
2026-05-07 00:41 1.83648 -77.13391 24130 ft 386 kts 221°
2026-05-07 00:41 1.81954 -77.15522 24129 ft 388 kts 240°
2026-05-07 00:41 1.81041 -77.18017 24129 ft 390 kts 259°
2026-05-07 00:42 1.80961 -77.20712 24129 ft 389 kts 278°
2026-05-07 00:42 1.81732 -77.23287 24126 ft 388 kts 297°
2026-05-07 00:42 1.83258 -77.25480 24122 ft 385 kts 316°
2026-05-07 00:42 1.85159 -77.26959 24118 ft 381 kts 333°
2026-05-07 00:43 1.87612 -77.27890 24115 ft 377 kts 351°
2026-05-07 00:43 1.90212 -77.28020 24141 ft 374 kts
2026-05-07 00:43 1.92681 -77.27378 24147 ft 371 kts 26°
2026-05-07 00:43 1.94989 -77.26184 24169 ft 381 kts 30°
2026-05-07 00:44 1.97379 -77.24930 24192 ft 394 kts 30°
2026-05-07 00:44 1.99818 -77.23650 24216 ft 398 kts 30°
2026-05-07 00:44 2.02262 -77.22336 24244 ft 400 kts 33°
2026-05-07 00:44 2.04432 -77.20630 24260 ft 391 kts 43°
2026-05-07 00:45 2.06428 -77.18854 24156 ft 377 kts 44°
2026-05-07 00:45 2.08353 -77.17135 23987 ft 365 kts 44°
2026-05-07 00:45 2.10228 -77.15458 23607 ft 359 kts 44°
2026-05-07 00:45 2.12082 -77.13800 23165 ft 355 kts 43°
2026-05-07 00:46 2.13913 -77.12160 22743 ft 352 kts 44°
2026-05-07 00:46 2.15703 -77.10555 22338 ft 349 kts 44°
2026-05-07 00:46 2.17506 -77.08940 21918 ft 346 kts 44°
2026-05-07 00:46 2.19295 -77.07339 21502 ft 344 kts 43°
2026-05-07 00:47 2.21070 -77.05751 21100 ft 341 kts 43°
2026-05-07 00:47 2.22829 -77.04175 20718 ft 338 kts 44°
2026-05-07 00:47 2.24574 -77.02611 20303 ft 336 kts 44°
2026-05-07 00:47 2.26305 -77.01062 19907 ft 332 kts 44°
2026-05-07 00:48 2.28024 -76.99525 19534 ft 330 kts 43°
2026-05-07 00:48 2.29734 -76.97997 19166 ft 328 kts 44°
2026-05-07 00:48 2.31429 -76.96480 18776 ft 326 kts 43°
2026-05-07 00:48 2.33111 -76.94972 18404 ft 323 kts 44°
2026-05-07 00:49 2.34782 -76.93475 18054 ft 320 kts 44°
2026-05-07 00:49 2.36437 -76.91995 17697 ft 319 kts 44°
2026-05-07 00:49 2.38082 -76.90522 17335 ft 316 kts 44°
2026-05-07 00:49 2.39720 -76.89057 16956 ft 315 kts 43°
2026-05-07 00:50 2.41354 -76.87596 16591 ft 314 kts 43°
2026-05-07 00:50 2.42979 -76.86146 16229 ft 312 kts 43°
2026-05-07 00:50 2.44634 -76.84794 15848 ft 311 kts 36°
2026-05-07 00:50 2.46504 -76.83700 15485 ft 311 kts 30°
2026-05-07 00:51 2.48412 -76.82684 15122 ft 310 kts 30°
2026-05-07 00:51 2.50313 -76.81671 14766 ft 308 kts 30°
2026-05-07 00:51 2.52196 -76.80667 14423 ft 306 kts 30°
2026-05-07 00:51 2.54072 -76.79665 14074 ft 305 kts 30°
2026-05-07 00:52 2.55933 -76.78665 13724 ft 303 kts 30°
2026-05-07 00:52 2.57787 -76.77667 13381 ft 302 kts 30°
2026-05-07 00:52 2.59632 -76.76676 13030 ft 300 kts 30°
2026-05-07 00:52 2.61465 -76.75693 12641 ft 299 kts 30°
2026-05-07 00:53 2.63271 -76.74725 12296 ft 297 kts 30°
2026-05-07 00:53 2.65085 -76.73752 11911 ft 296 kts 30°
2026-05-07 00:53 2.66907 -76.72786 11556 ft 295 kts 29°
2026-05-07 00:53 2.68700 -76.71830 11152 ft 289 kts 30°
2026-05-07 00:54 2.70477 -76.70875 10682 ft 291 kts 29°
2026-05-07 00:54 2.72264 -76.69914 10294 ft 293 kts 30°
2026-05-07 00:54 2.74052 -76.68951 9931 ft 291 kts 29°
2026-05-07 00:54 2.75837 -76.67994 9552 ft 290 kts 29°
2026-05-07 00:55 2.77616 -76.67043 9151 ft 289 kts 28°
2026-05-07 00:55 2.79386 -76.66097 8722 ft 288 kts 28°
2026-05-07 00:55 2.81149 -76.65150 8303 ft 288 kts 28°
2026-05-07 00:55 2.82907 -76.64205 7910 ft 286 kts 28°
2026-05-07 00:56 2.84652 -76.63269 7489 ft 283 kts 28°
2026-05-07 00:56 2.86390 -76.62340 7044 ft 283 kts 28°
2026-05-07 00:56 2.88120 -76.61414 6608 ft 281 kts 28°
2026-05-07 00:56 2.89838 -76.60492 6164 ft 279 kts 28°
2026-05-07 00:57 2.91544 -76.59577 5782 ft 278 kts 28°
2026-05-07 00:57 2.93287 -76.58646 6629 ft 285 kts 28°
2026-05-07 00:57 2.95010 -76.57726 7806 ft 285 kts 28°
2026-05-07 00:57 2.96753 -76.56794 7723 ft 283 kts 28°
2026-05-07 00:58 2.98491 -76.55859 7228 ft 284 kts 28°
2026-05-07 00:58 3.00227 -76.54924 6787 ft 283 kts 28°
2026-05-07 00:58 3.01950 -76.53997 6360 ft 280 kts 28°
2026-05-07 00:58 3.03668 -76.53076 5920 ft 279 kts 28°
2026-05-07 00:59 3.07075 -76.51253 5639 ft 280 kts 28°
2026-05-07 00:59 3.08794 -76.50330 5724 ft 281 kts 28°
2026-05-07 00:59 3.10521 -76.49400 5745 ft 282 kts 28°
2026-05-07 01:00 3.12247 -76.48472 5735 ft 280 kts 28°
2026-05-07 01:00 3.13905 -76.47580 5728 ft 261 kts 28°
2026-05-07 01:00 3.15450 -76.46749 5733 ft 243 kts 28°
2026-05-07 01:00 3.16892 -76.45972 5724 ft 228 kts 28°
2026-05-07 01:01 3.18270 -76.45230 5725 ft 223 kts 28°
2026-05-07 01:01 3.19638 -76.44494 5724 ft 223 kts 28°
2026-05-07 01:01 3.21085 -76.43939 5725 ft 223 kts 12°
2026-05-07 01:01 3.22617 -76.43670 5721 ft 224 kts
2026-05-07 01:02 3.24154 -76.43403 5713 ft 224 kts
2026-05-07 01:02 3.25689 -76.43138 5715 ft 223 kts
2026-05-07 01:02 3.27220 -76.42871 5712 ft 223 kts
2026-05-07 01:02 3.28747 -76.42607 5715 ft 223 kts
2026-05-07 01:03 3.30276 -76.42341 5714 ft 223 kts
2026-05-07 01:03 3.31809 -76.42075 5711 ft 224 kts
2026-05-07 01:03 3.33321 -76.41813 5714 ft 223 kts
2026-05-07 01:03 3.34844 -76.41549 5714 ft 223 kts
2026-05-07 01:04 3.36382 -76.41282 5708 ft 223 kts
2026-05-07 01:04 3.37914 -76.41016 5707 ft 224 kts
2026-05-07 01:04 3.39450 -76.40748 5687 ft 225 kts
2026-05-07 01:04 3.40939 -76.40490 5546 ft 208 kts
2026-05-07 01:05 3.42312 -76.40251 5279 ft 188 kts
2026-05-07 01:05 3.43520 -76.40041 5034 ft 165 kts
2026-05-07 01:05 3.44596 -76.39853 4834 ft 152 kts
2026-05-07 01:05 3.45617 -76.39678 4641 ft 146 kts
2026-05-07 01:06 3.46604 -76.39507 4448 ft 142 kts
2026-05-07 01:06 3.47570 -76.39339 4263 ft 140 kts
2026-05-07 01:06 3.48523 -76.39169 4085 ft 139 kts
2026-05-07 01:06 3.49474 -76.38984 3868 ft 139 kts
2026-05-07 01:07 3.50421 -76.38794 3624 ft 138 kts 360°
2026-05-07 01:07 3.51374 -76.38696 3455 ft 138 kts
2026-05-07 01:07 3.52314 -76.38515 3319 ft 140 kts 12°
2026-05-07 01:07 3.53269 -76.38348 3167 ft 138 kts 10°
2026-05-07 01:08 3.53911 -76.38227 3165 ft 26 kts
2026-05-07 01:08 3.53927 -76.38225 3165 ft 0 kts